OBJECT M

基本信息
目录编号:
59062
目录名称:
OBJECT M
国际标识:
2024-039M
轨道中心:
EARTH
物体状态:
已陨落(2025-05-06)
发射日期:
2024-02-29 UTC
国别:
(TBD)
轨道信息
数据来源: 国际轨道数据
星历时间: 2025-05-04T03:06:52+0800
半长轴: 6520.748km
偏心率: 0.0009406
轨道倾角: 97.399°
近地点辐角: 213.668°
升交点赤经: 100.496°
平近点角: 146.402°
近地点: 136.479km
远地点: 148.747km
周期: 87.339分钟
每日圈数: 16.487573
详细信息
发射场:
VOSTO
轨道高度:
LEO
数据来源:
AOE Integration Group
参考系:
TEME
时间系统:
UTC
历元类型:
SGP4
2D轨道图
3D轨道图
轨道高度分析图
轨道倾角分析图
轨道综合分析图
查看轨道综合分析图